User: anonymous   Login
Location: Hopkins Observatory
(42.6965°N, 73.1843°W)
Time: 09:39:27
(UTC-04:00)
Language:

UOSAT-12 - Orbit

View from above orbital plane
View from above orbital plane
View from above satellite
View from above satellite

Ground track
Ground track

The orbit data is extracted from the following two-line orbital elements,

1 25693U 99021A   17146.17090255 -.00000076 +00000-0 +91653-5 0  9997
2 25693 064.5550 193.5386 0033003 313.4136 046.4222 14.80734529976631
Epoch (UTC): 26 May 2017 04:06:05
Eccentricity: 0.0033003
inclination: 64.5550°
perigee height: 604 km
apogee height: 650 km
right ascension of ascending node: 193.5386°
argument of perigee: 313.4136°
revolutions per day: 14.80734529
mean anomaly at epoch: 46.4222°
orbit number at epoch: 97663

The dashed part of the orbit path shows where the satellite is in the earth's shadow,  

DLR